�������l�o���
Date,Time,MP-1(��Sv/h),MP-2(��Sv/h),MP-3(��Sv/h),MP-4(��Sv/h),MP-5(��Sv/h),MP-6(��Sv/h),MP-7(��Sv/h),MP-8(��Sv/h),����,����(m/s),���J
2020/08/05,00:00,0.674,0.974,0.605,1.155,0.838,0.399,0.675,0.633,��쐼,2.6,��
2020/08/05,00:10,0.671,0.972,0.603,1.156,0.835,0.398,0.674,0.633,��쐼,2.6,��
2020/08/05,00:20,0.674,0.972,0.603,1.156,0.835,0.399,0.676,0.634,��쐼,4.5,��
2020/08/05,00:30,0.674,0.973,0.604,1.157,0.834,0.399,0.677,0.634,��쐼,5.0,��
2020/08/05,00:40,0.675,0.974,0.602,1.155,0.832,0.398,0.676,0.634,��,5.6,��
2020/08/05,00:50,0.674,0.972,0.604,1.155,0.834,0.399,0.674,0.634,��쐼,5.5,��
2020/08/05,01:00,0.674,0.971,0.606,1.156,0.834,0.399,0.674,0.634,��쐼,5.8,��
2020/08/05,01:10,0.676,0.973,0.602,1.156,0.835,0.399,0.676,0.633,��,6.5,��
2020/08/05,01:20,0.675,0.972,0.604,1.157,0.837,0.399,0.674,0.633,��,6.0,��
2020/08/05,01:30,0.676,0.970,0.603,1.156,0.836,0.398,0.674,0.633,��,5.4,��
2020/08/05,01:40,0.674,0.972,0.606,1.155,0.833,0.398,0.673,0.635,��쐼,4.0,��
2020/08/05,01:50,0.675,0.971,0.604,1.156,0.836,0.399,0.675,0.633,��쐼,4.1,��
2020/08/05,02:00,0.675,0.973,0.605,1.156,0.833,0.399,0.674,0.634,��쐼,4.5,��
2020/08/05,02:10,0.674,0.971,0.605,1.158,0.833,0.398,0.674,0.635,��쐼,3.7,��
2020/08/05,02:20,0.675,0.970,0.604,1.158,0.837,0.400,0.674,0.633,��쐼,2.8,��
2020/08/05,02:30,0.676,0.973,0.604,1.158,0.836,0.400,0.675,0.634,���쐼,2.0,��
2020/08/05,02:40,0.675,0.971,0.605,1.158,0.834,0.399,0.675,0.632,��,1.4,��
2020/08/05,02:50,0.675,0.972,0.606,1.157,0.834,0.400,0.674,0.633,���쐼,1.4,��
2020/08/05,03:00,0.677,0.974,0.603,1.158,0.834,0.400,0.675,0.633,���k��,0.6,��
2020/08/05,03:10,0.675,0.973,0.604,1.157,0.834,0.400,0.674,0.633,�k�k��,0.6,��
2020/08/05,03:20,0.674,0.970,0.604,1.158,0.836,0.400,0.674,0.635,-,CALM,��
2020/08/05,03:30,0.676,0.973,0.605,1.161,0.836,0.399,0.675,0.634,-,CALM,��
2020/08/05,03:40,0.677,0.971,0.605,1.160,0.834,0.399,0.675,0.634,�k�k��,0.6,��
2020/08/05,03:50,0.676,0.971,0.604,1.159,0.834,0.400,0.676,0.633,-,CALM,��
2020/08/05,04:00,0.675,0.970,0.606,1.159,0.835,0.399,0.675,0.634,�k,0.6,��
2020/08/05,04:10,0.675,0.974,0.605,1.158,0.833,0.400,0.675,0.634,-,CALM,��
2020/08/05,04:20,0.677,0.972,0.606,1.160,0.835,0.400,0.676,0.634,-,CALM,��
2020/08/05,04:30,0.674,0.973,0.606,1.158,0.836,0.400,0.675,0.633,-,CALM,��
2020/08/05,04:40,0.676,0.971,0.604,1.157,0.834,0.398,0.674,0.633,��쐼,0.6,��
2020/08/05,04:50,0.675,0.971,0.605,1.158,0.834,0.397,0.675,0.633,��,1.5,��
2020/08/05,05:00,0.675,0.972,0.604,1.159,0.835,0.399,0.676,0.636,��쐼,1.4,��
2020/08/05,05:10,0.673,0.970,0.604,1.156,0.835,0.398,0.674,0.633,��쐼,1.5,��
2020/08/05,05:20,0.674,0.971,0.603,1.157,0.834,0.399,0.674,0.636,��,2.3,��
2020/08/05,05:30,0.676,0.969,0.603,1.157,0.833,0.399,0.673,0.635,��,1.7,��
2020/08/05,05:40,0.675,0.971,0.604,1.158,0.834,0.399,0.674,0.635,��,2.0,��
2020/08/05,05:50,0.674,0.971,0.604,1.159,0.834,0.400,0.675,0.634,��,1.7,��
2020/08/05,06:00,0.673,0.970,0.603,1.158,0.833,0.398,0.675,0.634,��,2.5,��
2020/08/05,06:10,0.674,0.971,0.603,1.158,0.833,0.397,0.674,0.635,�쐼,1.7,��
2020/08/05,06:20,0.674,0.969,0.603,1.158,0.834,0.399,0.677,0.634,��쐼,1.7,��
2020/08/05,06:30,0.675,0.971,0.603,1.157,0.836,0.398,0.675,0.634,�쐼,1.9,��
2020/08/05,06:40,0.674,0.971,0.602,1.156,0.831,0.399,0.677,0.634,�쐼,1.4,��
2020/08/05,06:50,0.675,0.969,0.602,1.158,0.833,0.399,0.678,0.633,�쐼,1.2,��
2020/08/05,07:00,0.676,0.970,0.603,1.156,0.834,0.400,0.675,0.634,��,1.5,��
2020/08/05,07:10,0.676,0.972,0.601,1.158,0.833,0.397,0.677,0.635,���k��,1.2,��
2020/08/05,07:20,0.676,0.971,0.604,1.158,0.833,0.397,0.676,0.633,�k��,1.5,��
2020/08/05,07:30,0.675,0.972,0.605,1.157,0.833,0.398,0.676,0.635,�k�k��,1.1,��
2020/08/05,07:40,0.676,0.971,0.605,1.158,0.835,0.399,0.676,0.635,�k�k��,1.2,��
2020/08/05,07:50,0.677,0.969,0.604,1.158,0.834,0.399,0.675,0.634,-,CALM,��
2020/08/05,08:00,0.675,0.969,0.603,1.159,0.834,0.398,0.676,0.634,�k�k��,1.1,��
2020/08/05,08:10,0.675,0.971,0.604,1.158,0.834,0.397,0.676,0.635,�k��,1.5,��
2020/08/05,08:20,0.673,0.968,0.603,1.157,0.835,0.399,0.675,0.634,���k��,1.2,��
2020/08/05,08:30,0.673,0.967,0.602,1.158,0.834,0.398,0.677,0.633,�k��,1.5,��
2020/08/05,08:40,0.675,0.965,0.603,1.155,0.835,0.399,0.677,0.631,���k��,1.4,��
2020/08/05,08:50,0.673,0.969,0.602,1.158,0.834,0.397,0.677,0.631,���k��,1.2,��
2020/08/05,09:00,0.674,0.965,0.601,1.158,0.833,0.398,0.676,0.632,��,1.5,��
2020/08/05,09:10,0.674,0.965,0.600,1.158,0.833,0.399,0.676,0.633,��,1.5,��
2020/08/05,09:20,0.676,0.966,0.601,1.158,0.833,0.398,0.677,0.633,���쓌,1.5,��
2020/08/05,09:30,0.674,0.967,0.599,1.160,0.833,0.397,0.675,0.632,���쓌,1.4,��
2020/08/05,09:40,0.673,0.968,0.603,1.159,0.833,0.396,0.676,0.633,�쓌,2.2,��
2020/08/05,09:50,0.674,0.967,0.600,1.158,0.833,0.397,0.675,0.632,�쓌,2.3,��
2020/08/05,10:00,0.674,0.965,0.601,1.160,0.833,0.397,0.676,0.634,�쓌,2.5,��
2020/08/05,10:10,0.673,0.966,0.602,1.158,0.834,0.398,0.675,0.632,��쓌,4.1,��
2020/08/05,10:20,0.674,0.967,0.599,1.158,0.834,0.396,0.675,0.633,��쓌,5.9,��
2020/08/05,10:30,0.673,0.967,0.600,1.157,0.836,0.396,0.674,0.633,��쓌,5.9,��
2020/08/05,10:40,0.675,0.966,0.602,1.158,0.834,0.398,0.676,0.634,��쓌,7.1,��
2020/08/05,10:50,0.675,0.968,0.602,1.162,0.835,0.396,0.676,0.633,��쓌,7.0,��
2020/08/05,11:00,0.674,0.968,0.603,1.160,0.837,0.397,0.674,0.633,��쓌,8.0,��
2020/08/05,11:10,0.677,0.967,0.604,1.159,0.836,0.397,0.677,0.633,��쓌,8.0,��
2020/08/05,11:20,0.672,0.967,0.603,1.156,0.837,0.396,0.676,0.633,��쓌,8.7,��
2020/08/05,11:30,0.675,0.968,0.604,1.157,0.835,0.396,0.676,0.632,��쓌,9.1,��
2020/08/05,11:40,0.674,0.970,0.603,1.157,0.837,0.396,0.676,0.633,��,8.2,��
2020/08/05,11:50,0.675,0.970,0.603,1.157,0.839,0.396,0.677,0.632,��,7.2,��
2020/08/05,12:00,0.676,0.973,0.604,1.157,0.837,0.396,0.677,0.634,��,7.1,��
2020/08/05,12:10,0.676,0.973,0.603,1.158,0.840,0.396,0.677,0.634,��,7.0,��
2020/08/05,12:20,0.676,0.973,0.606,1.159,0.836,0.396,0.676,0.634,��,6.2,��
2020/08/05,12:30,0.674,0.973,0.605,1.159,0.842,0.395,0.675,0.634,��,5.2,��
2020/08/05,12:40,0.676,0.973,0.605,1.159,0.839,0.397,0.677,0.634,��,7.2,��
2020/08/05,12:50,0.677,0.973,0.605,1.158,0.837,0.397,0.677,0.634,��,6.3,��
2020/08/05,13:00,0.676,0.974,0.605,1.158,0.841,0.396,0.675,0.633,��,5.6,��
2020/08/05,13:10,0.676,0.974,0.606,1.159,0.840,0.395,0.675,0.635,��,6.2,��
2020/08/05,13:20,0.675,0.975,0.605,1.160,0.841,0.395,0.675,0.634,��,5.1,��
2020/08/05,13:30,0.674,0.972,0.604,1.161,0.841,0.397,0.678,0.635,��,5.8,��
2020/08/05,13:40,0.676,0.973,0.605,1.158,0.842,0.397,0.677,0.635,��,6.1,��
2020/08/05,13:50,0.676,0.969,0.604,1.159,0.844,0.398,0.677,0.637,��,5.4,��
2020/08/05,14:00,0.676,0.973,0.604,1.161,0.842,0.397,0.677,0.633,��,5.4,��
2020/08/05,14:10,0.677,0.973,0.606,1.161,0.842,0.396,0.678,0.635,��,6.3,��
2020/08/05,14:20,0.676,0.972,0.605,1.162,0.843,0.398,0.678,0.633,��,6.3,��
2020/08/05,14:30,0.675,0.973,0.606,1.161,0.843,0.396,0.679,0.634,��,5.3,��
2020/08/05,14:40,0.676,0.973,0.607,1.160,0.843,0.395,0.679,0.635,��,5.5,��
2020/08/05,14:50,0.676,0.973,0.608,1.162,0.843,0.396,0.678,0.635,��,4.9,��
2020/08/05,15:00,0.677,0.974,0.607,1.162,0.843,0.398,0.679,0.636,��,5.3,��
2020/08/05,15:10,0.676,0.972,0.609,1.163,0.841,0.397,0.679,0.635,��,4.9,��
2020/08/05,15:20,0.676,0.975,0.607,1.160,0.842,0.395,0.679,0.633,��,5.9,��
2020/08/05,15:30,0.677,0.974,0.606,1.163,0.843,0.396,0.677,0.634,��,6.8,��
2020/08/05,15:40,0.677,0.976,0.607,1.162,0.844,0.397,0.677,0.635,��,6.3,��
2020/08/05,15:50,0.676,0.977,0.607,1.162,0.844,0.396,0.676,0.635,��,6.4,��
2020/08/05,16:00,0.678,0.977,0.606,1.161,0.845,0.395,0.676,0.635,��,6.5,��
2020/08/05,16:10,0.677,0.978,0.607,1.160,0.844,0.394,0.676,0.634,��,6.7,��
2020/08/05,16:20,0.676,0.977,0.607,1.163,0.844,0.395,0.677,0.636,��,6.7,��
2020/08/05,16:30,0.676,0.978,0.606,1.161,0.844,0.394,0.676,0.633,��,6.9,��
2020/08/05,16:40,0.676,0.977,0.607,1.163,0.843,0.396,0.679,0.633,��,6.0,��
2020/08/05,16:50,0.675,0.977,0.606,1.163,0.843,0.396,0.676,0.635,��,6.7,��
2020/08/05,17:00,0.676,0.980,0.604,1.163,0.841,0.394,0.677,0.636,��,6.9,��
2020/08/05,17:10,0.675,0.979,0.605,1.162,0.844,0.395,0.675,0.633,��,7.2,��
2020/08/05,17:20,0.678,0.980,0.606,1.164,0.843,0.397,0.676,0.635,��,6.2,��
2020/08/05,17:30,0.675,0.978,0.606,1.161,0.843,0.395,0.676,0.634,��,6.8,��
2020/08/05,17:40,0.676,0.980,0.607,1.162,0.843,0.394,0.675,0.636,��,6.0,��
2020/08/05,17:50,0.675,0.978,0.606,1.163,0.843,0.395,0.677,0.636,��,6.6,��
2020/08/05,18:00,0.677,0.979,0.606,1.164,0.839,0.394,0.676,0.634,��,6.4,��
2020/08/05,18:10,0.677,0.980,0.606,1.163,0.843,0.394,0.677,0.636,��,7.1,��
2020/08/05,18:20,0.678,0.979,0.605,1.163,0.843,0.395,0.678,0.635,��,6.3,��
2020/08/05,18:30,0.679,0.979,0.608,1.162,0.843,0.394,0.676,0.635,��,6.6,��
2020/08/05,18:40,0.678,0.977,0.606,1.165,0.842,0.394,0.676,0.635,��,7.1,��
2020/08/05,18:50,0.678,0.978,0.606,1.163,0.841,0.394,0.676,0.634,��,6.5,��
2020/08/05,19:00,0.676,0.980,0.605,1.164,0.841,0.394,0.675,0.634,��,6.2,��
2020/08/05,19:10,0.678,0.982,0.605,1.166,0.843,0.394,0.676,0.635,��,5.4,��
2020/08/05,19:20,0.678,0.980,0.607,1.163,0.844,0.395,0.677,0.635,��,5.2,��
2020/08/05,19:30,0.679,0.981,0.608,1.165,0.846,0.396,0.676,0.635,��,4.9,��
2020/08/05,19:40,0.678,0.981,0.607,1.164,0.843,0.395,0.676,0.634,��,5.2,��
2020/08/05,19:50,0.678,0.980,0.608,1.164,0.846,0.397,0.676,0.636,��,6.3,��
2020/08/05,20:00,0.678,0.982,0.607,1.165,0.845,0.398,0.676,0.635,��,5.3,��
2020/08/05,20:10,0.675,0.982,0.608,1.163,0.845,0.396,0.675,0.635,��,4.9,��
2020/08/05,20:20,0.678,0.982,0.609,1.164,0.844,0.397,0.676,0.634,��쐼,4.4,��
2020/08/05,20:30,0.676,0.983,0.607,1.165,0.846,0.396,0.676,0.634,��,4.5,��
2020/08/05,20:40,0.679,0.981,0.608,1.166,0.844,0.396,0.676,0.636,��,4.7,��
2020/08/05,20:50,0.677,0.980,0.608,1.165,0.844,0.397,0.677,0.635,��,5.9,��
2020/08/05,21:00,0.677,0.980,0.606,1.165,0.843,0.397,0.678,0.635,��,7.1,��
2020/08/05,21:10,0.676,0.982,0.608,1.164,0.845,0.396,0.677,0.636,��,6.7,��
2020/08/05,21:20,0.680,0.982,0.607,1.167,0.845,0.395,0.676,0.634,��,5.7,��
2020/08/05,21:30,0.678,0.981,0.607,1.166,0.845,0.396,0.676,0.634,��,5.1,��
2020/08/05,21:40,0.676,0.981,0.608,1.165,0.842,0.396,0.677,0.636,��,3.9,��
2020/08/05,21:50,0.676,0.982,0.609,1.166,0.844,0.396,0.678,0.636,��,4.6,��
2020/08/05,22:00,0.677,0.981,0.607,1.165,0.845,0.396,0.676,0.637,��,4.7,��
2020/08/05,22:10,0.678,0.980,0.609,1.166,0.843,0.396,0.676,0.636,��,5.2,��
2020/08/05,22:20,0.677,0.981,0.608,1.168,0.843,0.397,0.675,0.635,��,5.2,��
2020/08/05,22:30,0.678,0.981,0.607,1.163,0.845,0.396,0.676,0.635,��쐼,3.9,��
2020/08/05,22:40,0.677,0.980,0.607,1.166,0.845,0.396,0.679,0.635,��쐼,4.3,��
2020/08/05,22:50,0.677,0.981,0.608,1.164,0.845,0.395,0.677,0.635,��쐼,4.8,��
2020/08/05,23:00,0.678,0.982,0.607,1.165,0.845,0.395,0.677,0.636,��쐼,5.0,��
2020/08/05,23:10,0.678,0.981,0.607,1.168,0.846,0.395,0.676,0.635,��쐼,4.1,��
2020/08/05,23:20,0.679,0.984,0.610,1.167,0.844,0.397,0.677,0.636,��쐼,2.6,��
2020/08/05,23:30,0.678,0.982,0.608,1.167,0.844,0.396,0.676,0.636,��쐼,2.9,��
2020/08/05,23:40,0.676,0.981,0.609,1.167,0.845,0.396,0.677,0.636,��,3.1,��
2020/08/05,23:50,0.678,0.980,0.608,1.167,0.843,0.397,0.676,0.635,��,2.2,��
